Regional Weather Roundup
Issued by NWS

Home | Current Version | Previous Version | Text Only | Print | Product List | Glossary On
Versions: 1 2 3 4 5 6 7 8 9 10 11 12 13 14 15 16 17 18 19 20 21 22 23 24 25 26 27 28 29 30 31 32 33 34 35 36 37 38 39 40 41 42 43 44 45 46 47 48
000
ASPQ40 PGUM 251012
RWRPQ
WEATHER ROUNDUP FOR THE MARIANAS AND MICRONESIA
NATIONAL WEATHER SERVICE TIYAN GU
800 PM CHST FRI JUL 25 2014

GUZ001>004-251100-
MARIANA ISLANDS-

CITY           SKY/WX    TMP DP  RH WIND       PRES   REMARKS
GUAM AIRPORT   MOCLDY    77  75  94 N6        29.86R
ANDERSEN AFB   CLEAR     77  75  94 N9        29.86R
ROTA AIRPORT   RAIN      77  75  94 S9        29.86F
TINIAN AP      LGT RAIN  75  75 100 SE8       29.82R
SAIPAN AP      LGT RAIN  79  75  89 S13       29.84R

$$

PMZ161-251100-
REPUBLIC OF PALAU-

CITY           SKY/WX    TMP DP  RH WIND       PRES   REMARKS
KOROR AP       LGT RAIN  79  77  94 SW8       29.70R
KOROR WSO      SHOWER    77  75  94 W6        29.70R

$$

PMZ171>174-251100-
FEDERATED STATES OF MICRONESIA-

CITY           SKY/WX    TMP DP  RH WIND       PRES   REMARKS
YAP AIRPORT    MOCLDY    82  77  83 S8        29.71  HX  91
CHUUK AP       CLOUDY    81  79  94 SW14      29.84R
POHNPEI AP     NOT AVBL
POHNPEI WSO    LGT RAIN  77  75  94 S2        29.90S
KOSRAE AP      NOT AVBL

$$

PMZ181-251100-
REPUBLIC OF THE MARSHALL ISLANDS-

CITY           SKY/WX    TMP DP  RH WIND       PRES   REMARKS
KWAJALEIN AP   MOCLDY    81  75  83 SE15      29.89S
MAJURO AP      NOT AVBL
MAJURO WSO     LGT RAIN  81  77  89 S12       29.88S

$$



USA.gov is the U.S. government's official web portal to all federal, state and local government web resources and services.